This is the latest recevied weather packets stored in our database for station/object W8KVG. If no packets are shown the sender has not sent any weather packets the latest 10 day(s).
| Time | Temp. | Humidity | Pressure | Rain* | Wind** | Luminosity | Snow |
|---|---|---|---|---|---|---|---|
| 1778135984 | 4.44° C | 92% | 1012.4 hPa | 0 mm | - | 0 W/m² | - |
| 1778135681 | 4.44° C | 92% | 1012.4 hPa | 0 mm | - | 0 W/m² | - |
| 1778135378 | 5° C | 92% | 1012.3 hPa | 0 mm | - | 0 W/m² | - |
| 1778135076 | 5° C | 91% | 1012.3 hPa | 0 mm | - | 0 W/m² | - |
| 1778134773 | 5° C | 91% | 1012.3 hPa | 0 mm | - | 0 W/m² | - |
| 1778134471 | 5.56° C | 90% | 1012.4 hPa | 0 mm | - | 0 W/m² | - |
| 1778134169 | 5.56° C | 90% | 1012.6 hPa | 0 mm | - | 0 W/m² | - |
| 1778133865 | 5.56° C | 89% | 1012.5 hPa | 0 mm | - | 0 W/m² | - |
| 1778133561 | 6.11° C | 87% | 1012.6 hPa | 0 mm | - | 0 W/m² | - |
| 1778133256 | 6.11° C | 84% | 1012.6 hPa | 0 mm | - | 0 W/m² | - |
| 1778132949 | 6.67° C | 84% | 1012.7 hPa | 0 mm | - | 0 W/m² | - |
| 1778132644 | 6.67° C | 83% | 1012.6 hPa | 0 mm | - | 0 W/m² | - |
| 1778132342 | 6.67° C | 82% | 1012.8 hPa | 0 mm | - | 0 W/m² | - |
| 1778132039 | 7.22° C | 81% | 1012.7 hPa | 0 mm | - | 0 W/m² | - |
| 1778131738 | 7.22° C | 81% | 1012.7 hPa | 0 mm | - | 0 W/m² | - |
| 1778131435 | 7.22° C | 80% | 1013.1 hPa | 0 mm | - | 0 W/m² | - |
| 1778131132 | 7.22° C | 81% | 1013.3 hPa | 0 mm | - | 0 W/m² | - |
| 1778130830 | 7.78° C | 80% | 1013.5 hPa | 0 mm | - | 0 W/m² | - |
| 1778130526 | 7.78° C | 80% | 1013.3 hPa | 0 mm | - | 0 W/m² | - |
| 1778130223 | 7.78° C | 80% | 1013.3 hPa | 0 mm | - | 0 W/m² | - |
| 1778129920 | 7.78° C | 79% | 1013.4 hPa | 0 mm | - | 0 W/m² | - |
| 1778129616 | 7.78° C | 81% | 1013.3 hPa | 0 mm | - | 0 W/m² | - |
| 1778129313 | 7.78° C | 80% | 1013.4 hPa | 0 mm | - | 0 W/m² | - |
| 1778129010 | 7.78° C | 80% | 1013.2 hPa | 0 mm | - | 0 W/m² | - |
| 1778128705 | 7.78° C | 79% | 1013.3 hPa | 0 mm | - | 0 W/m² | - |
* Rain latest hour (hover to see other rain measurements)
** Current wind speed in m/s (hover to see current wind gust speed)